sat.trackr.live / text

‹ back to catalog

STARLINK-5011

NORAD 53925 · 2022-119AR

PAYLOAD ACTIVE UNKNOWN

§ Identity

Operator
Country
US
Launch date
2022-09-24
Launch site
AFETR
Launch vehicle
Mass (kg)
RCS (m²)

Purposes: comms

External: N2YO · Heavens-Above · Gunter

§ Orbital elements

Epoch: 2026-09-20T02:58:49.622016Z

Period
95.44 min
Inclination
53.1592°
Eccentricity
0.0001227
Mean motion
15.08835839 rev/d
Perigee alt
538.9 km
Apogee alt
540.6 km
Semi-major
6,917.9 km
B*
3.5200e-5
RAAN
160.2080°
Arg perigee
92.9006°
Mean anomaly
267.2126°
Rev number
22,118

§ Raw data

STARLINK-50111 53925U 22119AR  26263.12418544  .00000272  00000+0  35200-4 0  99912 53925  53.1592 160.2080 0001227  92.9006 267.2126 15.08835839221186

JSON: /api/v1/satellites/53925 · /tle

For live sub-satellite position, see the globe view (requires WebGL).

§ Visibility from observer

Set your observer location to see the next 7 days of passes ≥ 10°. The values pass through the URL so the page stays shareable.

No JS? Fill the form by hand. The geolocation button needs JavaScript.